This demonstration page uses our WeatherBlox Daily Observations layout. Learn more.

Hourly Observations for October 27, 2020

Temp ( °F °C ) Dew Point ( °F °C ) Humidity (%) Winds ( mph kmh ) Pressure ( in mb ) Visibility ( mi km ) Precip ( " mm )
12:54 am 00:54 Cloudy 26 -3.3 16 -8.9 66 66 Calm 30.48 1032 10 16.0934 0 0
1:54 am 01:54 Clear 24 -4.4 14 -10 65 65 Calm 30.46 1031 10 16.0934 0 0
2:54 am 02:54 Clear 24 -4.4 14 -10 65 65 Calm 30.44 1031 10 16.0934 0 0
3:54 am 03:54 Clear 19 -7.2 13 -10.6 77 77 Calm 30.43 1031 10 16.0934 0 0
4:54 am 04:54 Clear 21 -6.1 14 -10 74 74 Calm 30.43 1031 10 16.0934 0 0
5:54 am 05:54 Clear 21 -6.1 14 -10 74 74 Calm 30.43 1031 10 16.0934 0 0
6:54 am 06:54 Clear 19 -7.2 14 -10 81 81 S 5 7 30.42 1030 10 16.0934 0 0
7:54 am 07:54 Sunny 19 -7.2 14 -10 81 81 Calm 30.41 1030 10 16.0934 0 0
8:54 am 08:54 Sunny 20 -6.7 16 -8.9 85 85 Calm 30.42 1030 10 16.0934 0 0
9:54 am 09:54 Sunny 25 -3.9 17 -8.3 72 72 SW 6 9 30.42 1030 10 16.0934 0 0
10:54 am 10:54 Sunny 30 -1.1 17 -8.3 58 58 SSW 12 19 30.41 1030 10 16.0934 0 0
11:54 am 11:54 Sunny 32 0 18 -7.8 56 56 SW 14 22 30.37 1028 10 16.0934 0 0
12:54 pm 12:54 Sunny 35 1.7 17 -8.3 48 48 SW 12 19 30.35 1028 10 16.0934 0 0
1:54 pm 13:54 Sunny 37 2.8 18 -7.8 46 46 SSW 12 19 30.31 1026 10 16.0934 0 0
2:54 pm 14:54 Sunny 40 4.4 18 -7.8 41 41 SW 9 15 30.26 1025 10 16.0934 0 0
3:54 pm 15:54 Sunny 41 5 18 -7.8 39 39 SSW 13 20 30.25 1024 10 16.0934 0 0
4:54 pm 16:54 Sunny 42 5.6 19 -7.2 40 40 W 10 17 30.22 1023 10 16.0934 0 0
5:54 pm 17:54 Sunny 41 5 18 -7.8 39 39 WSW 8 13 30.2 1023 10 16.0934 0 0
6:54 pm 18:54 Clear 36 2.2 19 -7.2 50 50 SSW 5 7 30.2 1023 10 16.0934 0 0
7:54 pm 19:54 Clear 35 1.7 19 -7.2 52 52 SSW 5 7 30.21 1023 10 16.0934 0 0
8:54 pm 20:54 Clear 33 0.6 19 -7.2 56 56 SSW 7 11 30.21 1023 10 16.0934 0 0
9:54 pm 21:54 Clear 31 -0.6 19 -7.2 61 61 SSW 10 17 30.21 1023 10 16.0934 0 0
10:54 pm 22:54 Clear 30 -1.1 19 -7.2 64 64 SSW 6 9 30.2 1023 10 16.0934 0 0
11:54 pm 23:54 Clear 29 -1.7 19 -7.2 66 66 SSW 9 15 30.17 1022 10 16.0934 0 0

Powered by AerisWeather